OAW1055 EDDH-LSZH

Flight info

Callsign OAW1055
Flight time N/A
Altitude 31000
Route IDEKO7G/33 IDEKO N850 NIE/N0446F330 N850 ROBEG DCT OTMON/N0444F320 DCT SWALM DCT OMOGI/N0445F330 T721 LAMGO/N0395F230 T721 RILAX
Aircraft E295/M-SDE3GILORVW/S

Departure

Time 2026-04-24 18:55
Airport Hamburg Helmut Schmidt Airport (EDDH)

Arrival

Time N/A
Airport Zürich Airport (LSZH)
Time Latitude Longitude Altitude Speed Heading
2026-04-24 18:54 53.63102 9.57997 12607 ft 357 kts 207°
2026-04-24 18:55 53.58137 9.56420 14176 ft 368 kts 189°
2026-04-24 18:55 53.55577 9.55968 14864 ft 371 kts 189°
2026-04-24 18:55 53.52992 9.55509 15540 ft 374 kts 189°
2026-04-24 18:56 53.50395 9.55026 16229 ft 377 kts 189°
2026-04-24 18:56 53.47772 9.54521 16888 ft 380 kts 189°
2026-04-24 18:56 53.45134 9.54002 17553 ft 383 kts 189°
2026-04-24 18:56 53.42480 9.53479 18206 ft 386 kts 188°
2026-04-24 18:57 53.39795 9.53001 18785 ft 389 kts 188°
2026-04-24 18:57 53.37130 9.52508 19378 ft 390 kts 189°
2026-04-24 18:57 53.34417 9.51959 19955 ft 393 kts 191°
2026-04-24 18:57 53.31702 9.51387 20544 ft 394 kts 191°
2026-04-24 18:58 53.28968 9.50819 21125 ft 396 kts 191°
2026-04-24 18:58 53.26221 9.50263 21683 ft 399 kts 191°
2026-04-24 18:58 53.23447 9.49713 22240 ft 401 kts 190°
2026-04-24 18:58 53.20666 9.49169 22793 ft 404 kts 190°
2026-04-24 18:59 53.17861 9.48623 23336 ft 406 kts 190°
2026-04-24 18:59 53.15038 9.48075 23847 ft 409 kts 190°
2026-04-24 18:59 53.12200 9.47525 24306 ft 411 kts 191°
2026-04-24 18:59 53.09388 9.46984 24739 ft 413 kts 191°
2026-04-24 19:00 53.06520 9.46459 25168 ft 415 kts 190°
2026-04-24 19:00 53.03627 9.46023 25599 ft 419 kts 188°
2026-04-24 19:00 53.00706 9.45702 26015 ft 421 kts 188°
2026-04-24 19:00 52.97773 9.45404 26429 ft 423 kts 188°
2026-04-24 19:01 52.94826 9.45094 26840 ft 425 kts 188°
2026-04-24 19:01 52.91867 9.44770 27222 ft 427 kts 189°
2026-04-24 19:01 52.88885 9.44434 27611 ft 429 kts 189°
2026-04-24 19:01 52.85890 9.44091 27984 ft 432 kts 189°
2026-04-24 19:02 52.83902 9.43862 28228 ft 433 kts 189°
2026-04-24 19:02 52.79862 9.43398 28702 ft 436 kts 188°
2026-04-24 19:02 52.76819 9.43069 29042 ft 438 kts 189°
2026-04-24 19:02 52.73809 9.42746 29363 ft 440 kts 189°
2026-04-24 19:03 52.70744 9.42408 29671 ft 442 kts 189°
2026-04-24 19:03 52.67667 9.42054 29985 ft 444 kts 189°
2026-04-24 19:03 52.64574 9.41689 30292 ft 445 kts 190°
2026-04-24 19:03 52.61480 9.41315 30567 ft 447 kts 190°
2026-04-24 19:04 52.58374 9.40944 30840 ft 449 kts 190°
2026-04-24 19:04 52.55246 9.40579 31082 ft 451 kts 190°
2026-04-24 19:04 52.52115 9.40221 31159 ft 451 kts 190°
2026-04-24 19:05 52.45902 9.39535 31149 ft 450 kts 185°
2026-04-24 19:05 52.39623 9.39033 31154 ft 450 kts 188°
2026-04-24 19:06 52.33382 9.38333 31155 ft 449 kts 188°
2026-04-24 19:06 52.27147 9.37586 31158 ft 449 kts 189°
2026-04-24 19:07 52.20917 9.36847 31149 ft 449 kts 189°
2026-04-24 19:07 52.15740 9.36265 31157 ft 449 kts 189°
2026-04-24 19:08 52.08470 9.35384 31153 ft 448 kts 190°
2026-04-24 19:08 52.02255 9.34650 31156 ft 447 kts 190°
2026-04-24 19:09 51.96039 9.33897 31157 ft 448 kts 191°
2026-04-24 19:09 51.89862 9.33179 31154 ft 448 kts 191°
2026-04-24 19:10 51.83623 9.32493 31152 ft 448 kts 190°
2026-04-24 19:10 51.77403 9.31820 31161 ft 448 kts 190°
2026-04-24 19:11 51.71183 9.31147 31152 ft 448 kts 190°
2026-04-24 19:11 51.64955 9.30474 31152 ft 448 kts 190°
2026-04-24 19:12 51.58765 9.29807 31146 ft 448 kts 190°
2026-04-24 19:12 51.52537 9.29166 31146 ft 449 kts 187°
2026-04-24 19:13 51.47338 9.28702 31141 ft 448 kts 186°
2026-04-24 19:13 51.40084 9.28015 31145 ft 449 kts 183°
2026-04-24 19:14 51.33818 9.27517 31520 ft 451 kts 188°
2026-04-24 19:14 51.30699 9.27128 31927 ft 448 kts 191°
2026-04-24 19:14 51.27594 9.26680 32295 ft 447 kts 191°
2026-04-24 19:14 51.24497 9.26258 32652 ft 447 kts 189°
2026-04-24 19:15 51.21396 9.25883 32987 ft 446 kts 190°
2026-04-24 19:15 51.18295 9.25519 33145 ft 446 kts 189°
2026-04-24 19:15 51.15196 9.25181 33153 ft 444 kts 189°
2026-04-24 19:16 51.05971 9.24153 33154 ft 445 kts 189°
2026-04-24 19:16 50.99791 9.23523 33147 ft 446 kts 183°
2026-04-24 19:17 50.93604 9.23230 33150 ft 449 kts 181°
2026-04-24 19:17 50.87398 9.22835 33167 ft 444 kts 191°
2026-04-24 19:18 50.81271 9.21753 33168 ft 446 kts 190°
2026-04-24 19:18 50.75077 9.20913 33157 ft 445 kts 189°
2026-04-24 19:19 50.68927 9.19962 33163 ft 443 kts 193°
2026-04-24 19:19 50.62809 9.18672 33152 ft 443 kts 192°
2026-04-24 19:20 50.56683 9.17399 33153 ft 444 kts 192°
2026-04-24 19:20 50.50553 9.16135 33161 ft 444 kts 192°
2026-04-24 19:21 50.45464 9.15087 33152 ft 444 kts 192°
2026-04-24 19:21 50.39322 9.13823 33154 ft 444 kts 192°
2026-04-24 19:22 50.33182 9.12565 33148 ft 444 kts 192°
2026-04-24 19:22 50.30119 9.11938 33152 ft 444 kts 192°
2026-04-24 19:23 50.14163 9.08685 33145 ft 444 kts 191°
2026-04-24 19:24 50.12133 9.08273 33145 ft 444 kts 191°